GW6386 Weather Reports


time (UTC)temp
C
wind
direction
speed
KPH
gust
KPH
rain 1hr
cm
rain 24hr
cm
rain mn
cm
humidity
%
barometer
mb
20260502151904 15 0 3.2 17.7 0.00 0.00 0.00 46 804.6
20260502151404 15 2 6.4 17.7 0.00 0.00 0.00 46 688.0
20260502150903 15 358 1.6 17.7 0.00 0.00 0.00 49 892.7
20260502150400 15 350 6.4 20.9 0.00 0.00 0.00 46 686.0
20260502130713 10 356 3.2 20.9 0.00 0.00 0.00 63 906.4
20260502130212 9 1 4.8 20.9 0.00 0.00 0.00 66 919.7
20260502123655 6 0 3.2 20.9 0.00 0.00 0.00 74 745.9
20260502123154 6 16 3.2 20.9 0.00 0.00 0.00 75 865.6
20260502122653 6 356 1.6 20.9 0.00 0.00 0.00 76 1213.3
20260502122153 6 341 1.6 20.9 0.00 0.00 0.00 77 1203.6
20260502121652 5 349 1.6 20.9 0.00 0.00 0.00 78 1213.3
20260502121152 5 349 1.6 20.9 0.00 0.00 0.00 79 1215.3
20260502120651 5 352 1.6 20.9 0.00 0.00 0.00 80 1219.7
20260502115634 5 353 0.0 20.9 0.00 0.00 0.00 80 1219.2
20260502115134 5 353 0.0 20.9 0.00 0.00 0.00 80 1219.0
20260502114118 5 353 0.0 20.9 0.00 0.00 0.00 79 1218.5
20260502113102 5 353 0.0 20.9 0.00 0.00 0.00 77 1217.5
20260502112602 5 353 0.0 20.9 0.00 0.00 0.00 78 1216.6
20260502111547 5 353 0.0 20.9 0.00 0.00 0.00 76 1214.4
20260502111047 5 353 0.0 20.9 0.00 0.00 0.00 76 1214.7
20260502110546 5 353 0.0 20.9 0.00 0.00 0.00 76 1214.7
20260502110045 5 353 0.0 20.9 0.00 0.00 0.00 77 1214.9
20260502105029 6 353 0.0 20.9 0.00 0.00 0.00 78 1212.5
20260502104528 6 353 0.0 20.9 0.00 0.00 0.00 78 1209.7
20260502102957 6 353 0.0 20.9 0.00 0.00 0.00 77 1188.6
20260502101426 6 353 0.0 20.9 0.00 0.00 0.00 74 1033.6
20260502100925 6 353 0.0 20.9 0.00 0.00 0.00 74 868.8
20260502100424 6 353 0.0 20.9 0.00 0.00 0.00 74 545.7
20260502091401 7 2 1.6 20.9 0.00 0.00 0.00 73 457.3
20260502090900 7 10 3.2 20.9 0.00 0.00 0.00 71 722.5
20260502090359 7 349 1.6 20.9 0.00 0.00 0.00 70 1128.4
20260502071321 8 11 1.6 20.9 0.00 0.00 0.00 70 629.5
20260502070821 8 359 1.6 20.9 0.00 0.00 0.00 70 590.3
20260502065806 8 0 3.2 20.9 0.00 0.00 0.00 70 947.1
20260502065306 9 359 3.2 20.9 0.00 0.00 0.00 70 870.3
20260502064806 9 357 3.2 20.9 0.00 0.00 0.00 70 956.4
20260502063750 9 356 3.2 20.9 0.00 0.00 0.00 71 1094.3
20260502063249 9 0 3.2 20.9 0.00 0.00 0.00 71 1109.4
20260502062748 10 352 3.2 20.9 0.00 0.00 0.00 71 1123.5
20260502061215 10 0 3.2 20.9 0.00 0.00 0.00 71 1065.9
20260502060714 10 346 3.2 20.9 0.00 0.00 0.00 71 1177.4
20260502055658 10 357 3.2 20.9 0.00 0.00 0.00 70 1111.9
20260502055157 10 359 3.2 20.9 0.00 0.00 0.00 69 1027.6
20260502054656 10 352 3.2 20.9 0.00 0.00 0.00 69 1013.0
20260502053639 10 1 3.2 20.9 0.00 0.00 0.00 68 938.1
20260502053138 10 332 3.2 20.9 0.00 0.00 0.00 69 1004.4
20260502052121 11 347 1.6 20.9 0.00 0.00 0.00 70 1114.9
20260502051620 11 359 1.6 20.9 0.00 0.00 0.00 70 1023.8
20260502051119 11 0 1.6 20.9 0.00 0.00 0.00 70 1229.4
20260502050618 11 0 1.6 20.9 0.00 0.00 0.00 70 1223.4
20260502050117 11 0 0.0 20.9 0.00 0.00 0.00 69 1211.0
20260502045616 11 0 0.0 20.9 0.00 0.00 0.00 69 1186.5
20260502045115 11 0 0.0 20.9 0.00 0.00 0.00 69 1139.1
20260502044614 11 0 0.0 20.9 0.00 0.00 0.00 68 1043.6
20260502044113 11 45 0.0 20.9 0.00 0.00 0.00 68 843.9
20260502043613 11 0 0.0 20.9 0.00 0.00 0.00 67 1232.3
20260502043112 11 0 0.0 20.9 0.00 0.00 0.00 67 1232.9
20260502042611 11 0 1.6 20.9 0.00 0.00 0.00 66 1231.0
20260502035452 12 0 0.0 20.9 0.00 0.00 0.00 63 1045.4
20260502034951 12 0 0.0 20.9 0.00 0.00 0.00 63 868.7
20260502034450 12 0 1.6 20.9 0.00 0.00 0.00 63 516.0
20260502033950 12 0 1.6 20.9 0.00 0.00 0.00 63 312.6
20260502033450 12 0 1.6 20.9 0.00 0.00 0.00 62 449.6
20260502032433 12 359 1.6 20.9 0.00 0.00 0.00 62 1196.9
20260502031932 12 359 1.6 20.9 0.00 0.00 0.00 61 1162.1
20260502031431 12 314 1.6 20.9 0.00 0.00 0.00 62 1098.4
20260502030930 12 314 0.0 20.9 0.00 0.00 0.00 61 1098.2
20260502030429 13 314 1.6 20.9 0.00 0.00 0.00 61 1098.1
20260502025928 13 314 1.6 20.9 0.00 0.00 0.00 59 1097.3
20260502025427 13 314 0.0 20.9 0.00 0.00 0.00 58 1097.2
20260502024926 13 314 1.6 20.9 0.00 0.00 0.00 59 1097.5
20260502024425 13 314 0.0 20.9 0.00 0.00 0.00 59 1098.1
20260502023924 13 314 0.0 20.9 0.00 0.00 0.00 59 1098.8
20260502023423 13 314 0.0 20.9 0.00 0.00 0.00 58 1099.3
20260502022922 13 314 0.0 20.9 0.00 0.00 0.00 58 1099.6
20260502022421 13 314 0.0 20.9 0.00 0.00 0.00 57 1099.8
20260502021404 13 314 0.0 20.9 0.00 0.00 0.00 57 1100.2
20260502020347 13 315 0.0 20.9 0.00 0.00 0.00 58 1102.7
20260502015846 13 315 0.0 20.9 0.00 0.00 0.00 58 1101.8
20260502015345 14 315 0.0 20.9 0.00 0.00 0.00 58 1100.9
20260502013256 15 315 0.0 20.9 0.00 0.00 0.00 53 1099.4
20260502012239 15 315 0.0 20.9 0.00 0.00 0.00 52 1099.8
20260502011738 15 315 0.0 20.9 0.00 0.00 0.00 51 1099.9
20260502011237 15 315 0.0 20.9 0.00 0.00 0.00 52 1099.9
20260502010736 15 315 0.0 20.9 0.00 0.00 0.00 52 1099.4
20260502005203 16 315 0.0 20.9 0.00 0.00 0.00 49 1094.9
20260502004702 16 315 0.0 20.9 0.00 0.00 0.00 48 1090.8
20260502004202 16 315 0.0 20.9 0.00 0.00 0.00 48 1082.5
20260502003702 16 315 0.0 20.9 0.00 0.00 0.00 47 1066.5
20260502003202 16 315 0.0 20.9 0.00 0.00 0.00 47 1035.1
20260502002702 16 315 0.0 20.9 0.00 0.00 0.00 45 972.5
20260502002202 16 315 0.0 20.9 0.00 0.00 0.00 46 846.2
20260502001701 16 19 0.0 20.9 0.00 0.00 0.00 45 715.8
20260502001200 16 324 0.0 20.9 0.00 0.00 0.00 45 1072.4
20260502000659 16 324 0.0 20.9 0.00 0.00 0.00 46 1021.3
20260502000158 17 319 1.6 20.9 0.00 0.00 0.00 43 924.8
20260501235658 17 18 3.2 20.9 0.00 0.00 0.00 41 745.9
20260501235157 17 306 3.2 20.9 0.00 0.00 0.00 40 640.8
20260501234656 17 352 3.2 20.9 0.00 0.00 0.00 42 684.9
20260501234155 17 342 1.6 20.9 0.00 0.00 0.00 44 715.5
20260501233654 17 41 0.0 20.9 0.00 0.00 0.00 44 270.9
20260501233153 17 6 1.6 20.9 0.00 0.00 0.00 41 261.3
20260501232652 18 2 3.2 20.9 0.00 0.00 0.00 41 322.6
20260501231635 18 5 0.0 20.9 0.00 0.00 0.00 39 748.8
20260501231134 18 355 1.6 20.9 0.00 0.00 0.00 41 1079.3
20260501230633 18 347 1.6 20.9 0.00 0.00 0.00 40 941.3
20260501225617 18 354 1.6 20.9 0.00 0.00 0.00 41 1043.1
20260501225116 18 351 3.2 20.9 0.00 0.00 0.00 40 899.4
20260501224615 18 351 3.2 20.9 0.00 0.00 0.00 41 862.9
20260501224114 18 5 3.2 20.9 0.00 0.00 0.00 39 877.3
20260501223613 18 354 4.8 20.9 0.00 0.00 0.00 39 867.9
20260501223112 18 0 1.6 20.9 0.00 0.00 0.00 41 775.6
20260501222055 18 278 1.6 20.9 0.00 0.00 0.00 37 1018.7
20260501221554 19 308 3.2 20.9 0.00 0.00 0.00 37 1036.2
20260501221053 19 306 3.2 20.9 0.00 0.00 0.00 35 1018.3
20260501220552 19 314 4.8 20.9 0.00 0.00 0.00 37 999.0
20260501220051 19 279 0.0 20.9 0.00 0.00 0.00 37 969.3
20260501215551 19 291 1.6 20.9 0.00 0.00 0.00 35 921.3
20260501215051 19 353 1.6 20.9 0.00 0.00 0.00 36 789.1
20260501214550 19 359 3.2 20.9 0.00 0.00 0.00 37 950.3
20260501214049 19 332 1.6 20.9 0.00 0.00 0.00 37 891.4
20260501213548 19 359 3.2 20.9 0.00 0.00 0.00 38 762.3
20260501213047 18 3 3.2 20.9 0.00 0.00 0.00 39 581.4
20260501212546 18 15 4.8 20.9 0.00 0.00 0.00 39 732.4
20260501212046 18 319 1.6 20.9 0.00 0.00 0.00 41 922.0
20260501211545 18 338 1.6 20.9 0.00 0.00 0.00 37 882.9
20260501211044 18 2 3.2 20.9 0.00 0.00 0.00 38 693.5
20260501210543 18 353 1.6 20.9 0.00 0.00 0.00 36 936.6
20260501210042 18 282 0.0 20.9 0.00 0.00 0.00 38 896.3
20260501205541 18 235 1.6 20.9 0.00 0.00 0.00 37 797.8
20260501204525 19 5 1.6 20.9 0.00 0.00 0.00 41 787.4
20260501204025 19 317 0.0 20.9 0.00 0.00 0.00 39 960.8
20260501203523 19 315 3.2 20.9 0.00 0.00 0.00 37 1055.5
20260501203022 18 352 3.2 20.9 0.00 0.00 0.00 40 1055.3
20260501202521 18 321 3.2 20.9 0.00 0.00 0.00 38 1044.2
20260501201504 19 338 0.0 20.9 0.00 0.00 0.00 39 1075.3
20260501201004 19 315 1.6 20.9 0.00 0.00 0.00 38 991.7
20260501200502 19 329 1.6 20.9 0.00 0.00 0.00 37 924.2
20260501200001 19 227 6.4 20.9 0.00 0.00 0.00 35 921.0
20260501195500 20 313 3.2 20.9 0.00 0.00 0.00 36 945.6
20260501194959 20 280 3.2 20.9 0.00 0.00 0.00 33 931.3
20260501194458 20 268 1.6 20.9 0.00 0.00 0.00 36 936.6
20260501193957 20 0 8.0 20.9 0.00 0.00 0.00 36 881.9
20260501193456 20 349 4.8 20.9 0.00 0.00 0.00 36 877.4
20260501192955 20 329 3.2 20.9 0.00 0.00 0.00 37 839.3
20260501192455 21 356 1.6 20.9 0.00 0.00 0.00 35 869.0
20260501191954 21 2 1.6 20.9 0.00 0.00 0.00 34 607.3
20260501191454 21 6 4.8 20.9 0.00 0.00 0.00 35 794.5
20260501190436 20 277 1.6 20.9 0.00 0.00 0.00 36 766.8
20260501185419 20 277 3.2 20.9 0.00 0.00 0.00 40 859.1
20260501184918 19 228 0.0 20.9 0.00 0.00 0.00 39 701.8
20260501184418 19 218 1.6 20.9 0.00 0.00 0.00 33 610.1
20260501183917 20 89 3.2 20.9 0.00 0.00 0.00 31 441.4
20260501183416 20 355 3.2 20.9 0.00 0.00 0.00 35 536.5
20260501182915 20 29 3.2 20.9 0.00 0.00 0.00 32 519.1
20260501181858 20 346 3.2 20.9 0.00 0.00 0.00 33 689.0
20260501180842 20 270 3.2 20.9 0.00 0.00 0.00 31 519.8
20260501180341 19 330 3.2 20.9 0.00 0.00 0.00 34 507.3
20260501175841 18 47 1.6 20.9 0.00 0.00 0.00 35 374.6
20260501175340 18 51 1.6 20.9 0.00 0.00 0.00 33 370.5
20260501174839 18 34 3.2 20.9 0.00 0.00 0.00 39 460.8
20260501173822 17 246 1.6 20.9 0.00 0.00 0.00 41 746.5
20260501173321 17 205 3.2 20.9 0.00 0.00 0.00 33 620.6
20260501171247 17 49 1.6 20.9 0.00 0.00 0.00 42 584.9
20260501170746 17 352 1.6 20.9 0.00 0.00 0.00 41 778.9
20260501170245 17 300 3.2 20.9 0.00 0.00 0.00 41 855.2
20260501165744 17 344 1.6 20.9 0.00 0.00 0.00 47 675.9
20260501165243 16 356 3.2 20.9 0.00 0.00 0.00 44 924.2
20260501164742 16 289 1.6 20.9 0.00 0.00 0.00 47 892.7
20260501164241 16 203 3.2 20.9 0.00 0.00 0.00 41 812.1
20260501163740 16 93 4.8 20.9 0.00 0.00 0.00 39 919.1
20260501162207 15 238 3.2 20.9 0.00 0.00 0.00 41 720.2
20260501161150 15 146 4.8 20.9 0.00 0.00 0.00 37 679.1
20260501160649 15 200 1.6 20.9 0.00 0.00 0.00 41 759.1
20260501160148 15 193 3.2 20.9 0.00 0.00 0.00 44 801.7
20260501155131 15 288 1.6 20.9 0.00 0.00 0.00 52 910.7
20260501154630 14 223 3.2 20.9 0.00 0.00 0.00 46 811.3
20260501154129 14 229 3.2 20.9 0.00 0.00 0.00 45 827.4